DAL2581 KATL-KRDU

Flight info

Callsign DAL2581
Flight time 1h 8m
Altitude 37000
Route GAIRY2 IRQ PYRES DMSTR2
Aircraft A320/M-SDE3FGHIRWY/LB1

Departure

Time 2026-05-07 01:17
Airport Hartsfield Jackson Atlanta International Airport (KATL)

Arrival

Time 2026-05-07 02:26
Airport Raleigh-Durham International Airport (KRDU)
Time Latitude Longitude Altitude Speed Heading
2026-05-07 00:59 33.63793 -84.43650 1006 ft 0 kts 90°
2026-05-07 01:06 33.63793 -84.43651 1006 ft 1 kts 90°
2026-05-07 01:06 33.63794 -84.43677 1006 ft 4 kts 94°
2026-05-07 01:07 33.63800 -84.43707 1006 ft 4 kts 131°
2026-05-07 01:07 33.63820 -84.43721 1006 ft 3 kts 178°
2026-05-07 01:07 33.63823 -84.43721 1006 ft 0 kts 180°
2026-05-07 01:10 33.63818 -84.43721 1006 ft 4 kts 180°
2026-05-07 01:10 33.63752 -84.43721 1006 ft 11 kts 180°
2026-05-07 01:11 33.63682 -84.43702 1006 ft 10 kts 135°
2026-05-07 01:11 33.63664 -84.43628 1006 ft 9 kts 91°
2026-05-07 01:11 33.63664 -84.43507 1006 ft 17 kts 88°
2026-05-07 01:11 33.63664 -84.43368 1006 ft 16 kts 90°
2026-05-07 01:12 33.63664 -84.43237 1006 ft 15 kts 90°
2026-05-07 01:12 33.63663 -84.43114 1006 ft 15 kts 90°
2026-05-07 01:12 33.63663 -84.42996 1006 ft 14 kts 89°
2026-05-07 01:12 33.63663 -84.42885 1006 ft 13 kts 90°
2026-05-07 01:13 33.63663 -84.42779 1006 ft 14 kts 92°
2026-05-07 01:13 33.63655 -84.42667 1007 ft 13 kts 95°
2026-05-07 01:13 33.63653 -84.42564 1007 ft 12 kts 89°
2026-05-07 01:13 33.63654 -84.42465 1007 ft 12 kts 89°
2026-05-07 01:14 33.63655 -84.42367 1007 ft 11 kts 90°
2026-05-07 01:14 33.63655 -84.42278 1007 ft 11 kts 90°
2026-05-07 01:14 33.63655 -84.42141 1007 ft 21 kts 90°
2026-05-07 01:14 33.63655 -84.41971 1006 ft 20 kts 90°
2026-05-07 01:15 33.63654 -84.41802 1006 ft 21 kts 90°
2026-05-07 01:15 33.63655 -84.41614 1006 ft 23 kts 88°
2026-05-07 01:15 33.63654 -84.41424 1006 ft 23 kts 90°
2026-05-07 01:15 33.63655 -84.41231 1006 ft 23 kts 89°
2026-05-07 01:16 33.63657 -84.41039 1006 ft 22 kts 89°
2026-05-07 01:16 33.63607 -84.40909 1006 ft 17 kts 168°
2026-05-07 01:16 33.63491 -84.40918 1007 ft 16 kts 206°
2026-05-07 01:16 33.63471 -84.41040 1006 ft 19 kts 269°
2026-05-07 01:17 33.63468 -84.41388 1006 ft 74 kts 271°
2026-05-07 01:17 33.63471 -84.42254 1007 ft 131 kts 270°
2026-05-07 01:17 33.63475 -84.43484 1263 ft 151 kts 267°
2026-05-07 01:17 33.63467 -84.44745 1847 ft 151 kts 264°
2026-05-07 01:18 33.63469 -84.45996 2469 ft 150 kts 264°
2026-05-07 01:18 33.63405 -84.47263 2907 ft 157 kts 253°
2026-05-07 01:18 33.62987 -84.48539 3116 ft 174 kts 238°
2026-05-07 01:18 33.62389 -84.49914 3272 ft 197 kts 240°
2026-05-07 01:19 33.61726 -84.51472 3455 ft 223 kts 241°
2026-05-07 01:19 33.60994 -84.53211 3949 ft 241 kts 241°
2026-05-07 01:19 33.60235 -84.55021 4781 ft 245 kts 242°
2026-05-07 01:19 33.59424 -84.56825 5629 ft 247 kts 233°
2026-05-07 01:20 33.58095 -84.58137 6448 ft 254 kts 207°
2026-05-07 01:20 33.56348 -84.58523 7202 ft 266 kts 186°
2026-05-07 01:20 33.54481 -84.58542 8006 ft 269 kts 186°
2026-05-07 01:20 33.52598 -84.58525 8804 ft 273 kts 185°
2026-05-07 01:21 33.50684 -84.58500 9598 ft 276 kts 186°
2026-05-07 01:21 33.48748 -84.58357 10348 ft 285 kts 173°
2026-05-07 01:21 33.46944 -84.57241 11029 ft 307 kts 143°
2026-05-07 01:21 33.45689 -84.55050 11388 ft 340 kts 115°
2026-05-07 01:22 33.45155 -84.52167 11578 ft 369 kts 99°
2026-05-07 01:22 33.45066 -84.49033 12020 ft 382 kts 91°
2026-05-07 01:22 33.45199 -84.45826 12647 ft 388 kts 88°
2026-05-07 01:22 33.45391 -84.42583 13324 ft 392 kts 88°
2026-05-07 01:23 33.45547 -84.39307 13957 ft 396 kts 90°
2026-05-07 01:23 33.45635 -84.35997 14576 ft 399 kts 91°
2026-05-07 01:23 33.45669 -84.33786 14935 ft 403 kts 89°
2026-05-07 01:23 33.45980 -84.29272 15681 ft 410 kts 86°
2026-05-07 01:24 33.46146 -84.27011 16066 ft 412 kts 85°
2026-05-07 01:24 33.46486 -84.22453 16823 ft 418 kts 85°
2026-05-07 01:24 33.46750 -84.18971 17403 ft 422 kts 84°
2026-05-07 01:24 33.46930 -84.16640 17785 ft 425 kts 84°
2026-05-07 01:25 33.47210 -84.13059 18338 ft 429 kts 84°
2026-05-07 01:25 33.47494 -84.09487 18801 ft 433 kts 84°
2026-05-07 01:25 33.47781 -84.05883 19261 ft 437 kts 84°
2026-05-07 01:25 33.48066 -84.02248 19728 ft 441 kts 84°
2026-05-07 01:26 33.48350 -83.98623 20180 ft 445 kts 84°
2026-05-07 01:26 33.48640 -83.94912 20638 ft 449 kts 84°
2026-05-07 01:26 33.48927 -83.91164 21095 ft 453 kts 84°
2026-05-07 01:26 33.49213 -83.87390 21488 ft 459 kts 84°
2026-05-07 01:27 33.49503 -83.83566 21927 ft 463 kts 84°
2026-05-07 01:27 33.49797 -83.79709 22382 ft 467 kts 83°
2026-05-07 01:27 33.50095 -83.75817 22824 ft 470 kts 83°
2026-05-07 01:27 33.50392 -83.71900 23260 ft 474 kts 84°
2026-05-07 01:28 33.50690 -83.67943 23654 ft 478 kts 84°
2026-05-07 01:28 33.50991 -83.63961 24021 ft 481 kts 83°
2026-05-07 01:28 33.51378 -83.59969 24394 ft 484 kts 81°
2026-05-07 01:28 33.51889 -83.55984 24787 ft 486 kts 78°
2026-05-07 01:29 33.52484 -83.51987 25142 ft 488 kts 77°
2026-05-07 01:29 33.53117 -83.47977 25511 ft 491 kts 77°
2026-05-07 01:29 33.53747 -83.43945 25887 ft 494 kts 77°
2026-05-07 01:29 33.54355 -83.39875 26274 ft 496 kts 78°
2026-05-07 01:30 33.54934 -83.35788 26646 ft 499 kts 79°
2026-05-07 01:30 33.55492 -83.31676 27016 ft 501 kts 79°
2026-05-07 01:30 33.56043 -83.27535 27366 ft 504 kts 79°
2026-05-07 01:30 33.56597 -83.23372 27721 ft 507 kts 79°
2026-05-07 01:31 33.57158 -83.19187 28070 ft 509 kts 79°
2026-05-07 01:31 33.57725 -83.14990 28411 ft 511 kts 79°
2026-05-07 01:31 33.58298 -83.10773 28735 ft 514 kts 78°
2026-05-07 01:31 33.58875 -83.06529 28952 ft 516 kts 78°
2026-05-07 01:32 33.59445 -83.02329 28998 ft 504 kts 78°
2026-05-07 01:32 33.60544 -82.94170 28987 ft 496 kts 78°
2026-05-07 01:33 33.61640 -82.86006 28976 ft 495 kts 79°
2026-05-07 01:33 33.62720 -82.77848 28988 ft 495 kts 78°
2026-05-07 01:34 33.63795 -82.69698 29017 ft 497 kts 78°
2026-05-07 01:34 33.64340 -82.65553 29008 ft 508 kts 78°
2026-05-07 01:34 33.64897 -82.61323 29025 ft 519 kts 78°
2026-05-07 01:35 33.66044 -82.52603 29026 ft 538 kts 79°
2026-05-07 01:35 33.67224 -82.43593 28966 ft 551 kts 79°
2026-05-07 01:36 33.68405 -82.34478 28966 ft 553 kts 79°
2026-05-07 01:36 33.69576 -82.25342 28958 ft 553 kts 79°
2026-05-07 01:37 33.70799 -82.16232 28987 ft 551 kts 75°
2026-05-07 01:37 33.72946 -82.07466 28961 ft 549 kts 70°
2026-05-07 01:38 33.75167 -81.98681 28956 ft 549 kts 70°
2026-05-07 01:38 33.77384 -81.89896 28951 ft 549 kts 70°
2026-05-07 01:39 33.79586 -81.81104 28947 ft 549 kts 70°
2026-05-07 01:39 33.81792 -81.72293 28951 ft 549 kts 70°
2026-05-07 01:40 33.83988 -81.63482 28945 ft 549 kts 70°
2026-05-07 01:40 33.86305 -81.54778 28957 ft 534 kts 63°
2026-05-07 01:40 33.87983 -81.50924 28953 ft 508 kts 54°
2026-05-07 01:41 33.89786 -81.47341 28958 ft 494 kts 54°
2026-05-07 01:41 33.93253 -81.40321 28957 ft 492 kts 60°
2026-05-07 01:41 33.94357 -81.36400 28961 ft 498 kts 78°
2026-05-07 01:42 33.94831 -81.32263 28962 ft 500 kts 82°
2026-05-07 01:42 33.95609 -81.23949 28964 ft 498 kts 82°
2026-05-07 01:43 33.96386 -81.15659 28964 ft 498 kts 82°
2026-05-07 01:43 33.97165 -81.07383 28956 ft 492 kts 82°
2026-05-07 01:43 33.97545 -81.03360 28966 ft 475 kts 82°
2026-05-07 01:44 33.97911 -80.99475 28969 ft 460 kts 82°
2026-05-07 01:44 33.98681 -80.91895 28970 ft 453 kts 75°
2026-05-07 01:44 33.99698 -80.88341 28970 ft 445 kts 58°
2026-05-07 01:45 34.01392 -80.85272 28945 ft 437 kts 44°
2026-05-07 01:45 34.05256 -80.79673 28945 ft 437 kts 44°
2026-05-07 01:46 34.09168 -80.74054 28950 ft 437 kts 44°
2026-05-07 01:46 34.13071 -80.68421 28996 ft 437 kts 45°
2026-05-07 01:47 34.16955 -80.62770 28976 ft 437 kts 45°
2026-05-07 01:47 34.20896 -80.57032 28983 ft 456 kts 45°
2026-05-07 01:47 34.22947 -80.54048 28981 ft 468 kts 45°
2026-05-07 01:48 34.25048 -80.50983 28977 ft 477 kts 46°
2026-05-07 01:48 34.29268 -80.44795 28977 ft 481 kts 46°
2026-05-07 01:49 34.33528 -80.38541 28976 ft 481 kts 46°
2026-05-07 01:49 34.37835 -80.32230 28969 ft 496 kts 46°
2026-05-07 01:50 34.42310 -80.25685 28861 ft 510 kts 46°
2026-05-07 01:50 34.44585 -80.22343 27738 ft 517 kts 46°
2026-05-07 01:50 34.46855 -80.18993 27267 ft 507 kts 46°
2026-05-07 01:50 34.49036 -80.15752 26383 ft 488 kts 46°
2026-05-07 01:51 34.51161 -80.12597 25551 ft 481 kts 46°
2026-05-07 01:51 34.53284 -80.09460 25062 ft 480 kts 45°
2026-05-07 01:51 34.55394 -80.06348 24511 ft 476 kts 45°
2026-05-07 01:51 34.57493 -80.03257 23968 ft 472 kts 45°
2026-05-07 01:52 34.59573 -80.00185 23399 ft 470 kts 45°
2026-05-07 01:52 34.61637 -79.97131 22807 ft 466 kts 46°
2026-05-07 01:52 34.63682 -79.94099 22250 ft 462 kts 46°
2026-05-07 01:52 34.65709 -79.91091 21714 ft 458 kts 46°
2026-05-07 01:53 34.67746 -79.88140 21154 ft 451 kts 41°
2026-05-07 01:53 34.70048 -79.85635 20742 ft 438 kts 30°
2026-05-07 01:53 34.72518 -79.83474 20569 ft 438 kts 30°
2026-05-07 01:53 34.74982 -79.81303 20328 ft 437 kts 30°
2026-05-07 01:54 34.77438 -79.79132 20102 ft 435 kts 30°
2026-05-07 01:54 34.79881 -79.76972 19863 ft 433 kts 30°
2026-05-07 01:54 34.82314 -79.74820 19644 ft 431 kts 30°
2026-05-07 01:54 34.84707 -79.72701 19394 ft 430 kts 30°
2026-05-07 01:55 34.87120 -79.70563 19158 ft 428 kts 30°
2026-05-07 01:55 34.89522 -79.68433 18885 ft 427 kts 30°
2026-05-07 01:55 34.91916 -79.66309 18648 ft 425 kts 30°
2026-05-07 01:55 34.94305 -79.64187 18416 ft 423 kts 30°
2026-05-07 01:56 34.96679 -79.62083 18231 ft 421 kts 30°
2026-05-07 01:56 34.99046 -79.59986 17992 ft 420 kts 30°
2026-05-07 01:56 35.01403 -79.57895 17761 ft 419 kts 30°
2026-05-07 01:56 35.03754 -79.55804 17524 ft 418 kts 31°
2026-05-07 01:57 35.06099 -79.53715 17311 ft 418 kts 30°
2026-05-07 01:57 35.08448 -79.51627 17069 ft 417 kts 30°
2026-05-07 01:57 35.10932 -79.49881 16843 ft 408 kts 17°
2026-05-07 01:57 35.13559 -79.48824 16626 ft 397 kts
2026-05-07 01:58 35.16269 -79.48362 16455 ft 392 kts 359°
2026-05-07 01:58 35.18978 -79.48006 16239 ft 391 kts 359°
2026-05-07 01:58 35.21681 -79.47647 16019 ft 391 kts 360°
2026-05-07 01:58 35.24383 -79.47284 15801 ft 390 kts 360°
2026-05-07 01:59 35.27073 -79.46921 15588 ft 389 kts
2026-05-07 01:59 35.29767 -79.46559 15398 ft 389 kts 360°
2026-05-07 01:59 35.32453 -79.46175 15151 ft 390 kts
2026-05-07 01:59 35.35089 -79.45247 14934 ft 400 kts 18°
2026-05-07 02:00 35.37508 -79.43517 14713 ft 407 kts 33°
2026-05-07 02:00 35.39702 -79.41312 14476 ft 407 kts 35°
2026-05-07 02:00 35.41880 -79.39106 14257 ft 405 kts 35°
2026-05-07 02:00 35.44050 -79.36913 14031 ft 404 kts 36°
2026-05-07 02:01 35.46215 -79.34726 13807 ft 402 kts 36°
2026-05-07 02:01 35.48372 -79.32553 13557 ft 401 kts 36°
2026-05-07 02:01 35.50526 -79.30382 13340 ft 399 kts 36°
2026-05-07 02:01 35.52668 -79.28224 13117 ft 398 kts 36°
2026-05-07 02:02 35.54803 -79.26073 12903 ft 396 kts 36°
2026-05-07 02:02 35.56906 -79.23951 12687 ft 395 kts 36°
2026-05-07 02:02 35.59028 -79.21803 12469 ft 394 kts 36°
2026-05-07 02:02 35.61135 -79.19664 12253 ft 393 kts 36°
2026-05-07 02:03 35.63174 -79.17430 12033 ft 394 kts 44°
2026-05-07 02:03 35.64911 -79.14796 11468 ft 398 kts 50°
2026-05-07 02:03 35.66554 -79.12067 10971 ft 394 kts 51°
2026-05-07 02:03 35.68163 -79.09356 10367 ft 393 kts 51°
2026-05-07 02:04 35.69760 -79.06649 10016 ft 386 kts 51°
2026-05-07 02:04 35.71324 -79.04000 9859 ft 382 kts 51°
2026-05-07 02:04 35.72894 -79.01359 9590 ft 382 kts 51°
2026-05-07 02:04 35.74459 -78.98730 9201 ft 379 kts 51°
2026-05-07 02:05 35.76014 -78.96118 8792 ft 377 kts 51°
2026-05-07 02:05 35.77560 -78.93521 8402 ft 375 kts 52°
2026-05-07 02:05 35.78826 -78.90722 8011 ft 375 kts 68°
2026-05-07 02:05 35.79434 -78.87655 7659 ft 374 kts 83°
2026-05-07 02:06 35.79742 -78.84438 7306 ft 372 kts 83°
2026-05-07 02:06 35.80045 -78.81280 7180 ft 371 kts 83°
2026-05-07 02:06 35.80346 -78.78173 7018 ft 370 kts 83°
2026-05-07 02:06 35.80656 -78.75026 6716 ft 369 kts 82°
2026-05-07 02:07 35.81386 -78.72021 6404 ft 364 kts 60°
2026-05-07 02:07 35.84634 -78.67403 5682 ft 352 kts 41°
2026-05-07 02:07 35.86311 -78.65357 5324 ft 326 kts 40°
2026-05-07 02:08 35.87863 -78.63475 5035 ft 302 kts 41°
2026-05-07 02:08 35.89310 -78.61725 4815 ft 283 kts 40°
2026-05-07 02:08 35.90697 -78.60046 4622 ft 273 kts 41°
2026-05-07 02:08 35.92013 -78.58446 4514 ft 260 kts 40°
2026-05-07 02:09 35.93296 -78.56887 4473 ft 258 kts 40°
2026-05-07 02:09 35.94572 -78.55339 4414 ft 254 kts 41°
2026-05-07 02:09 35.95791 -78.53850 4381 ft 238 kts 40°
2026-05-07 02:09 35.96938 -78.52443 4322 ft 228 kts 40°
2026-05-07 02:10 35.98052 -78.51079 4275 ft 225 kts 40°
2026-05-07 02:10 35.99164 -78.49725 4227 ft 224 kts 40°
2026-05-07 02:10 35.99898 -78.48831 4191 ft 223 kts 40°
2026-05-07 02:10 36.01004 -78.47484 4149 ft 224 kts 41°
2026-05-07 02:11 36.02110 -78.46131 4099 ft 224 kts 41°
2026-05-07 02:11 36.03214 -78.44781 4055 ft 222 kts 41°
2026-05-07 02:11 36.04666 -78.42996 3983 ft 222 kts 41°
2026-05-07 02:11 36.05410 -78.42084 3958 ft 223 kts 41°
2026-05-07 02:12 36.06510 -78.40736 3910 ft 222 kts 42°
2026-05-07 02:12 36.07603 -78.39393 3861 ft 221 kts 41°
2026-05-07 02:12 36.08690 -78.38058 3813 ft 220 kts 41°
2026-05-07 02:12 36.09779 -78.36724 3767 ft 221 kts 42°
2026-05-07 02:13 36.10872 -78.35386 3723 ft 221 kts 41°
2026-05-07 02:13 36.12051 -78.34252 3688 ft 213 kts 17°
2026-05-07 02:13 36.13444 -78.34040 3674 ft 195 kts 338°
2026-05-07 02:13 36.14591 -78.34777 3677 ft 184 kts 314°
2026-05-07 02:14 36.15579 -78.35788 3651 ft 184 kts 311°
2026-05-07 02:14 36.16537 -78.36835 3620 ft 183 kts 310°
2026-05-07 02:14 36.17484 -78.37882 3592 ft 183 kts 310°
2026-05-07 02:14 36.18223 -78.39088 3575 ft 170 kts 281°
2026-05-07 02:15 36.18129 -78.40453 3532 ft 161 kts 241°
2026-05-07 02:15 36.17349 -78.41479 3505 ft 166 kts 223°
2026-05-07 02:15 36.16433 -78.42359 3488 ft 167 kts 221°
2026-05-07 02:15 36.15499 -78.43210 3465 ft 166 kts 220°
2026-05-07 02:16 36.14569 -78.44059 3444 ft 165 kts 223°
2026-05-07 02:16 36.13933 -78.45207 3416 ft 163 kts 246°
2026-05-07 02:16 36.13301 -78.46365 3398 ft 164 kts 227°
2026-05-07 02:16 36.12503 -78.47385 3371 ft 165 kts 227°
2026-05-07 02:17 36.11696 -78.48408 3346 ft 166 kts 226°
2026-05-07 02:17 36.10889 -78.49419 3347 ft 164 kts 228°
2026-05-07 02:17 36.10088 -78.50420 3347 ft 163 kts 227°
2026-05-07 02:17 36.09287 -78.51419 3347 ft 165 kts 227°
2026-05-07 02:18 36.08478 -78.52427 3349 ft 165 kts 227°
2026-05-07 02:18 36.07671 -78.53432 3349 ft 163 kts 227°
2026-05-07 02:18 36.06871 -78.54428 3350 ft 163 kts 227°
2026-05-07 02:18 36.06076 -78.55418 3347 ft 163 kts 228°
2026-05-07 02:19 36.05306 -78.56374 3340 ft 147 kts 228°
2026-05-07 02:19 36.04612 -78.57236 3352 ft 137 kts 228°
2026-05-07 02:19 36.03961 -78.58047 3349 ft 132 kts 227°
2026-05-07 02:19 36.03313 -78.58853 3345 ft 132 kts 227°
2026-05-07 02:20 36.02674 -78.59647 3352 ft 130 kts 229°
2026-05-07 02:20 36.02033 -78.60445 3354 ft 131 kts 228°
2026-05-07 02:20 36.01395 -78.61237 3354 ft 130 kts 228°
2026-05-07 02:20 36.00756 -78.62031 3352 ft 131 kts 227°
2026-05-07 02:21 36.00111 -78.62832 3350 ft 132 kts 228°
2026-05-07 02:21 35.99463 -78.63636 3350 ft 132 kts 228°
2026-05-07 02:21 35.98817 -78.64438 3299 ft 131 kts 229°
2026-05-07 02:21 35.98181 -78.65227 3173 ft 126 kts 228°
2026-05-07 02:22 35.97586 -78.65964 3033 ft 122 kts 227°
2026-05-07 02:22 35.96990 -78.66703 2879 ft 121 kts 227°
2026-05-07 02:22 35.96403 -78.67431 2714 ft 120 kts 227°
2026-05-07 02:22 35.95805 -78.68173 2571 ft 123 kts 226°
2026-05-07 02:23 35.95197 -78.68927 2412 ft 124 kts 225°
2026-05-07 02:23 35.94592 -78.69678 2255 ft 123 kts 225°
2026-05-07 02:23 35.93992 -78.70421 2089 ft 121 kts 225°
2026-05-07 02:23 35.93398 -78.71161 1940 ft 121 kts 225°
2026-05-07 02:24 35.92802 -78.71910 1790 ft 123 kts 225°
2026-05-07 02:24 35.92202 -78.72666 1586 ft 123 kts 224°
2026-05-07 02:24 35.91581 -78.73427 1415 ft 127 kts 223°
2026-05-07 02:24 35.90952 -78.74192 1218 ft 126 kts 225°
2026-05-07 02:25 35.90326 -78.74996 1075 ft 132 kts 224°
2026-05-07 02:25 35.89663 -78.75797 945 ft 135 kts 225°
2026-05-07 02:25 35.88994 -78.76628 789 ft 138 kts 224°
2026-05-07 02:25 35.88316 -78.77448 590 ft 136 kts 223°
2026-05-07 02:26 35.87653 -78.78264 449 ft 129 kts 224°
2026-05-07 02:26 35.87085 -78.78965 425 ft 94 kts 225°
2026-05-07 02:26 35.86785 -78.79344 432 ft 27 kts 243°
2026-05-07 02:26 35.86805 -78.79481 433 ft 9 kts 334°
2026-05-07 02:27 35.86853 -78.79447 429 ft 8 kts 46°
2026-05-07 02:27 35.86888 -78.79402 430 ft 6 kts 46°
2026-05-07 02:27 35.86918 -78.79364 432 ft 6 kts 46°
2026-05-07 02:27 35.86944 -78.79330 435 ft 6 kts 45°
2026-05-07 02:28 35.87005 -78.79256 428 ft 18 kts 45°
2026-05-07 02:28 35.87090 -78.79152 423 ft 14 kts 45°
2026-05-07 02:28 35.87159 -78.79068 433 ft 14 kts 44°
2026-05-07 02:28 35.87225 -78.78988 428 ft 13 kts 44°
2026-05-07 02:29 35.87287 -78.78913 435 ft 12 kts 44°
2026-05-07 02:29 35.87347 -78.78839 423 ft 12 kts 46°
2026-05-07 02:29 35.87403 -78.78768 432 ft 11 kts 46°
2026-05-07 02:29 35.87462 -78.78692 430 ft 12 kts 46°
2026-05-07 02:30 35.87525 -78.78613 432 ft 15 kts 45°
2026-05-07 02:30 35.87605 -78.78515 428 ft 16 kts 45°
2026-05-07 02:30 35.87685 -78.78418 431 ft 16 kts 42°
2026-05-07 02:30 35.87769 -78.78449 435 ft 14 kts 317°
2026-05-07 02:31 35.87841 -78.78533 424 ft 15 kts 314°
2026-05-07 02:31 35.87925 -78.78644 422 ft 20 kts 315°
2026-05-07 02:31 35.88041 -78.78782 410 ft 26 kts 316°
2026-05-07 02:31 35.88153 -78.78918 391 ft 23 kts 314°
2026-05-07 02:32 35.88157 -78.79023 392 ft 11 kts 233°
2026-05-07 02:32 35.88103 -78.79094 392 ft 15 kts 224°
2026-05-07 02:32 35.88007 -78.79210 392 ft 20 kts 224°
2026-05-07 02:32 35.87906 -78.79330 392 ft 18 kts 225°
2026-05-07 02:33 35.87855 -78.79325 392 ft 3 kts 134°
2026-05-07 02:33 35.87845 -78.79312 392 ft 0 kts 132°